Flag for U.S.A. Weather past 2 weeks in Jacksonville, Florida, U.S.A.

Now
83 °F

Thunderstorms. Partly sunny.


Feels Like: 91 °F
Forecast: 76 / 90 °F
Wind: 13 mph from West

Location: Jacksonville Naval Air Station

Current Time: Jul 25, 2014 at 3:43:18 PM

Latest Report: Jul 25, 2014 at 2:53 PM


Visibility: 8 mi

Pressure: 30.03 "Hg

Humidity: 79%

Dew point: 76 °F

Location of JacksonvilleLocation

Historic Weather in Jacksonville — Graph

°F

Jacksonville temperature yesterday

Maximum temperature yesterday: 96 °F (at 3:53 PM)
Minimum temperature yesterday: 79 °F (at 5:53 AM)
Average temperature yesterday: 88 °F

Past Weeks' High & Low Weather Summary

 TemperatureHumidityPressure
High96 °F (Jul 24, 3:53 PM)90% (Jul 17, 3:53 AM)30.19 "Hg (Jul 17, 3:53 AM)
Low75 °F (Jul 17, 3:53 AM)37% (Jul 17, 4:53 PM)29.86 "Hg (Jul 16, 4:01 PM)
Average83 °F71%30.04 "Hg
* Reported Jul 10 1:53 PM — Jul 25 1:53 PM, Jacksonville, Weather by CustomWeather, © 2014

Note: Actual official high and low records may vary slightly from our data, if they occured in-between our weather recording intervals... More about our weather records

Advertising

Jacksonville weather history for previous 24 hours

 ConditionsComfort  
Time TempWeatherWind HumidityBarometerVisibility
1:53 PM
Jul 25
94 °FScattered clouds.7 mph44%30.03 "Hg10 mi
12:53 PM94 °FScattered clouds.9 mph46%30.04 "Hg10 mi
11:53 AM91 °FScattered clouds.9 mph54%30.05 "Hg10 mi
10:53 AM90 °FScattered clouds.8 mph57%30.06 "Hg10 mi
9:53 AM88 °FScattered clouds.9 mph63%30.06 "Hg10 mi
8:53 AM85 °FPassing clouds.6 mph70%30.06 "Hg10 mi
7:53 AM81 °FPassing clouds.6 mph79%30.05 "Hg10 mi
6:53 AM79 °FPassing clouds.5 mph82%30.04 "Hg10 mi
5:53 AM80 °FPassing clouds.6 mph79%30.02 "Hg10 mi
4:53 AM80 °FPassing clouds.5 mph79%30.01 "Hg10 mi
3:53 AM83 °FPassing clouds.9 mph72%30.00 "Hg10 mi
2:53 AM83 °FPassing clouds.7 mph72%30.00 "Hg10 mi
1:53 AM83 °FPassing clouds.6 mph72%30.01 "Hg10 mi
12:53 AM84 °FPassing clouds.7 mph70%30.01 "Hg10 mi
11:53 PM
Jul 24
85 °FPassing clouds.8 mph65%30.01 "Hg10 mi
10:53 PM87 °FPassing clouds.9 mph61%30.00 "Hg10 mi
9:53 PM88 °FPassing clouds.8 mph61%29.98 "Hg10 mi
8:53 PM91 °FScattered clouds.12 mph54%29.95 "Hg10 mi
7:53 PM92 °FScattered clouds.9 mph52%29.95 "Hg10 mi
6:53 PM94 °FScattered clouds.12 mph48%29.93 "Hg10 mi
5:53 PM96 °FBroken clouds.13 mph43%29.93 "Hg10 mi
4:53 PM96 °FBroken clouds.9 mph43%29.93 "Hg10 mi
3:53 PM96 °FScattered clouds.8 mph40%29.96 "Hg10 mi
Weather by CustomWeather, © 2014

See weather overviewHow to use our weather pages